Time,TemperatureF,DewpointF,PressureIn,WindDirection,WindDirectionDegrees,WindSpeedMPH,WindSpeedGustMPH,Humidity,HourlyPrecipIn,Conditions,Clouds,dailyrainin,SoftwareType,DateUTC
2013-07-29 00:04:00,70.6,70.0,30.00,East,93,0.0,0.0,98,0.00,,,0.00,weatherlink.com 1.10,2013-07-29 05:04:00,
2013-07-29 00:19:00,70.5,70.0,30.01,East,92,0.0,0.0,98,0.00,,,0.00,weatherlink.com 1.10,2013-07-29 05:19:00,
2013-07-29 00:34:00,70.5,70.0,30.00,East,92,0.0,1.0,98,0.00,,,0.00,weatherlink.com 1.10,2013-07-29 05:34:00,
2013-07-29 00:49:00,70.6,70.0,30.00,East,92,0.0,1.0,98,0.00,,,0.00,weatherlink.com 1.10,2013-07-29 05:49:00,
2013-07-29 01:04:00,70.6,70.0,30.00,ENE,77,0.0,2.0,99,0.00,,,0.00,weatherlink.com 1.10,2013-07-29 06:04:00,
2013-07-29 01:19:00,70.6,70.0,30.00,ENE,78,0.0,0.0,99,0.00,,,0.00,weatherlink.com 1.10,2013-07-29 06:19:00,
2013-07-29 01:34:00,70.6,70.0,30.00,ENE,78,0.0,0.0,99,0.00,,,0.00,weatherlink.com 1.10,2013-07-29 06:34:00,
2013-07-29 01:49:00,70.6,70.0,30.00,ENE,77,0.0,0.0,99,0.00,,,0.00,weatherlink.com 1.10,2013-07-29 06:49:00,
2013-07-29 02:04:00,70.6,70.0,30.00,ENE,77,0.0,0.0,99,0.00,,,0.00,weatherlink.com 1.10,2013-07-29 07:04:00,
2013-07-29 02:19:00,70.4,70.0,29.99,ENE,78,0.0,0.0,99,0.00,,,0.00,weatherlink.com 1.10,2013-07-29 07:19:00,
2013-07-29 02:34:00,70.3,70.0,29.99,ENE,78,0.0,0.0,99,0.00,,,0.00,weatherlink.com 1.10,2013-07-29 07:34:00,
2013-07-29 02:49:00,70.2,70.0,29.99,ENE,77,0.0,0.0,99,0.00,,,0.00,weatherlink.com 1.10,2013-07-29 07:49:00,
2013-07-29 03:04:00,70.4,70.0,29.99,ENE,77,0.0,0.0,99,0.00,,,0.00,weatherlink.com 1.10,2013-07-29 08:04:00,
2013-07-29 03:19:00,70.2,70.0,30.00,ENE,77,0.0,0.0,99,0.00,,,0.00,weatherlink.com 1.10,2013-07-29 08:19:00,
2013-07-29 03:34:00,70.5,70.0,30.00,East,83,0.0,1.0,99,0.00,,,0.00,weatherlink.com 1.10,2013-07-29 08:34:00,
2013-07-29 03:49:00,70.4,70.0,30.00,NNW,343,0.0,0.0,99,0.00,,,0.00,weatherlink.com 1.10,2013-07-29 08:49:00,
2013-07-29 04:04:00,70.2,70.0,30.00,ENE,70,0.0,1.0,99,0.00,,,0.00,weatherlink.com 1.10,2013-07-29 09:04:00,
2013-07-29 04:19:00,70.1,70.0,30.00,ENE,70,0.0,0.0,99,0.00,,,0.00,weatherlink.com 1.10,2013-07-29 09:19:00,
2013-07-29 04:34:00,70.1,70.0,30.01,ENE,70,0.0,0.0,99,0.00,,,0.00,weatherlink.com 1.10,2013-07-29 09:34:00,
2013-07-29 04:49:00,70.1,70.0,30.02,ENE,69,0.0,0.0,99,0.00,,,0.00,weatherlink.com 1.10,2013-07-29 09:49:00,
2013-07-29 05:04:00,70.3,70.0,30.02,ENE,70,0.0,0.0,99,0.00,,,0.00,weatherlink.com 1.10,2013-07-29 10:04:00,
2013-07-29 05:19:00,70.3,70.0,30.02,ENE,68,0.0,1.0,99,0.01,,,0.01,weatherlink.com 1.10,2013-07-29 10:19:00,
2013-07-29 05:34:00,70.4,70.0,30.03,ENE,70,0.0,0.0,99,0.01,,,0.01,weatherlink.com 1.10,2013-07-29 10:34:00,
2013-07-29 05:49:00,70.5,70.0,30.03,East,94,0.0,0.0,99,0.01,,,0.01,weatherlink.com 1.10,2013-07-29 10:49:00,
2013-07-29 06:04:00,70.6,70.0,30.04,NE,46,0.0,1.0,99,0.01,,,0.01,weatherlink.com 1.10,2013-07-29 11:04:00,
2013-07-29 06:19:00,71.0,71.0,30.05,NE,46,0.0,0.0,99,0.00,,,0.01,weatherlink.com 1.10,2013-07-29 11:19:00,
2013-07-29 06:34:00,71.3,71.0,30.05,NE,46,0.0,0.0,99,0.00,,,0.01,weatherlink.com 1.10,2013-07-29 11:34:00,
2013-07-29 06:49:00,71.5,71.0,30.06,East,101,1.0,1.0,99,0.00,,,0.01,weatherlink.com 1.10,2013-07-29 11:49:00,
2013-07-29 07:04:00,71.7,71.0,30.06,ESE,110,0.0,2.0,99,0.00,,,0.01,weatherlink.com 1.10,2013-07-29 12:04:00,
2013-07-29 07:20:00,72.1,72.0,30.07,ESE,110,1.0,2.0,99,0.00,,,0.01,weatherlink.com 1.10,2013-07-29 12:20:00,
2013-07-29 07:50:00,73.7,73.0,30.07,ESE,111,0.0,1.0,99,0.00,,,0.01,weatherlink.com 1.10,2013-07-29 12:50:00,
2013-07-29 08:05:00,73.9,74.0,30.07,ESE,113,2.0,2.0,99,0.00,,,0.01,weatherlink.com 1.10,2013-07-29 13:05:00,
2013-07-29 08:20:00,74.6,74.0,30.07,ESE,111,1.0,2.0,99,0.00,,,0.01,weatherlink.com 1.10,2013-07-29 13:20:00,
2013-07-29 08:35:00,75.4,75.0,30.08,ESE,103,2.0,2.0,99,0.00,,,0.01,weatherlink.com 1.10,2013-07-29 13:35:00,
2013-07-29 09:35:00,81.2,79.0,30.09,East,85,1.0,4.0,92,0.00,,,0.01,weatherlink.com 1.10,2013-07-29 14:35:00,
2013-07-29 10:20:00,83.8,77.0,30.10,East,97,2.0,4.0,81,0.00,,,0.01,weatherlink.com 1.10,2013-07-29 15:20:00,
2013-07-29 10:50:00,84.1,77.0,30.10,East,91,3.0,5.0,79,0.00,,,0.01,weatherlink.com 1.10,2013-07-29 15:50:00,
2013-07-29 11:05:00,85.0,77.0,30.10,WNW,293,2.0,5.0,77,0.00,,,0.01,weatherlink.com 1.10,2013-07-29 16:05:00,
2013-07-29 11:20:00,85.0,77.0,30.10,ENE,69,0.0,3.0,78,0.00,,,0.01,weatherlink.com 1.10,2013-07-29 16:20:00,
2013-07-29 11:35:00,86.0,77.0,30.10,East,93,2.0,6.0,75,0.00,,,0.01,weatherlink.com 1.10,2013-07-29 16:35:00,
2013-07-29 12:05:00,86.5,79.0,30.10,East,93,1.0,4.0,78,0.00,,,0.01,weatherlink.com 1.10,2013-07-29 17:05:00,
2013-07-29 12:20:00,86.8,78.0,30.09,ESE,113,1.0,4.0,76,0.00,,,0.01,weatherlink.com 1.10,2013-07-29 17:20:00,
2013-07-29 12:50:00,88.8,79.0,30.09,East,98,1.0,2.0,72,0.00,,,0.01,weatherlink.com 1.10,2013-07-29 17:50:00,
2013-07-29 13:06:00,88.9,79.0,30.09,NNE,20,2.0,4.0,72,0.00,,,0.01,weatherlink.com 1.10,2013-07-29 18:06:00,
2013-07-29 13:21:00,89.4,78.0,30.09,West,281,2.0,4.0,68,0.00,,,0.01,weatherlink.com 1.10,2013-07-29 18:21:00,
2013-07-29 13:36:00,90.4,78.0,30.08,NW,314,1.0,4.0,68,0.00,,,0.01,weatherlink.com 1.10,2013-07-29 18:36:00,
2013-07-29 13:51:00,90.3,79.0,30.08,ESE,108,0.0,2.0,69,0.00,,,0.01,weatherlink.com 1.10,2013-07-29 18:51:00,
2013-07-29 14:06:00,91.3,77.0,30.08,WNW,291,1.0,4.0,64,0.00,,,0.01,weatherlink.com 1.10,2013-07-29 19:06:00,
2013-07-29 14:21:00,91.0,78.0,30.07,ESE,106,1.0,6.0,65,0.00,,,0.01,weatherlink.com 1.10,2013-07-29 19:21:00,
2013-07-29 14:36:00,91.1,80.0,30.07,NNE,13,0.0,3.0,69,0.00,,,0.01,weatherlink.com 1.10,2013-07-29 19:36:00,
2013-07-29 14:51:00,92.0,79.0,30.07,ESE,122,0.0,2.0,66,0.00,,,0.01,weatherlink.com 1.10,2013-07-29 19:51:00,
2013-07-29 15:06:00,91.8,77.0,30.07,ESE,104,1.0,4.0,63,0.00,,,0.01,weatherlink.com 1.10,2013-07-29 20:06:00,
2013-07-29 15:21:00,91.7,77.0,30.06,ENE,70,1.0,5.0,62,0.00,,,0.01,weatherlink.com 1.10,2013-07-29 20:21:00,
2013-07-29 15:36:00,92.5,77.0,30.06,East,87,1.0,3.0,61,0.00,,,0.01,weatherlink.com 1.10,2013-07-29 20:36:00,
2013-07-29 16:51:00,92.2,78.0,30.06,WNW,285,0.0,3.0,63,0.00,,,0.01,weatherlink.com 1.10,2013-07-29 21:51:00,
2013-07-29 18:21:00,92.1,78.0,30.06,WNW,291,0.0,1.0,64,0.00,,,0.01,weatherlink.com 1.10,2013-07-29 23:21:00,
2013-07-29 19:21:00,84.6,79.0,30.07,SSW,213,0.0,0.0,83,0.00,,,0.01,weatherlink.com 1.10,2013-07-30 00:21:00,
2013-07-29 19:36:00,83.3,78.0,30.08,SSW,213,0.0,0.0,85,0.00,,,0.01,weatherlink.com 1.10,2013-07-30 00:36:00,
2013-07-29 19:51:00,82.0,77.0,30.09,SSW,212,0.0,0.0,85,0.00,,,0.01,weatherlink.com 1.10,2013-07-30 00:51:00,
2013-07-29 20:06:00,81.3,78.0,30.09,SW,214,0.0,1.0,89,0.00,,,0.01,weatherlink.com 1.10,2013-07-30 01:06:00,
2013-07-29 20:36:00,80.3,78.0,30.10,SSW,213,0.0,0.0,91,0.00,,,0.01,weatherlink.com 1.10,2013-07-30 01:36:00,
2013-07-29 21:51:00,78.7,77.0,30.12,ESE,105,0.0,0.0,94,0.00,,,0.01,weatherlink.com 1.10,2013-07-30 02:51:00,
2013-07-29 22:36:00,77.8,77.0,30.12,ESE,108,0.0,0.0,96,0.00,,,0.01,weatherlink.com 1.10,2013-07-30 03:36:00,
2013-07-29 22:51:00,77.6,76.0,30.12,ESE,112,0.0,1.0,96,0.00,,,0.01,weatherlink.com 1.10,2013-07-30 03:51:00,
2013-07-29 23:06:00,77.2,76.0,30.12,ESE,113,0.0,0.0,96,0.00,,,0.01,weatherlink.com 1.10,2013-07-30 04:06:00,
2013-07-29 23:21:00,76.8,76.0,30.13,ESE,111,0.0,1.0,96,0.00,,,0.01,weatherlink.com 1.10,2013-07-30 04:21:00,
2013-07-29 23:36:00,76.6,75.0,30.13,ESE,111,0.0,0.0,96,0.00,,,0.01,weatherlink.com 1.10,2013-07-30 04:36:00,
2013-07-29 23:51:00,76.3,75.0,30.13,ESE,112,0.0,0.0,96,0.00,,,0.01,weatherlink.com 1.10,2013-07-30 04:51:00,